Regional Weather Roundup
Issued by NWS

Home | Current Version | Previous Version | Text Only | Print | Product List | Glossary On
Versions: 1 2 3 4 5 6 7 8 9 10 11 12 13 14 15 16 17 18 19 20 21 22 23 24 25 26 27 28 29 30 31 32 33 34 35 36 37 38 39 40 41 42 43 44 45 46 47 48 49 50
000
ASUS43 KMPX 200010
RWRMN
WEATHER ROUNDUP FOR MINNESOTA
NATIONAL WEATHER SERVICE TWIN CITIES/CHANHASSEN MN
700 PM CDT TUE AUG 19 2014


NOTE: "FAIR" INDICATES FEW OR NO CLOUDS BELOW 12,000 FEET WITH NO
SIGNIFICANT WEATHER AND/OR OBSTRUCTIONS TO VISIBILITY. N/A MEANS
CURRENT SKY AND/OR WEATHER CONDITIONS ARE NOT AVAILABLE.

MNZ060>063-068>070-200100-
   Twin Cities Metro

CITY           SKY/WX    TMP DP  RH WIND       PRES   REMARKS
TWIN CITIES    MOSUNNY   79  62  56 NW9       29.74S
6HR MIN TEMP:  75; 6HR MAX TEMP:  81;

ST PAUL        LGT RAIN  71  67  87 CALM      29.75R
CRYSTAL        PTSUNNY   76  64  66 E5        29.73R
BLAINE         PTSUNNY   72  70  94 CALM      29.74S
LAKEVILLE      MOSUNNY   75  64  69 SW3       29.75S
EDEN PRAIRIE   CLOUDY    79  63  57 NW5       29.73S
6HR MIN TEMP:  74; 6HR MAX TEMP:  83;

SOUTH ST PAUL  RAIN      76  64  67 N13G22    29.75R
LAKE ELMO      LGT RAIN  70  68  94 CALM      29.76R
$$
MNZ001>005-007-008-013>017-022>024-027-028-200100-
   Northwest Minnesota

CITY           SKY/WX    TMP DP  RH WIND       PRES   REMARKS
BEMIDJI        SUNNY     73  60  62 N3        29.78R
HALLOCK        SUNNY     81  63  54 SE3       29.73S
ROSEAU         SUNNY     73  64  73 E8        29.76S
WARROAD        SUNNY     72  64  78 E7        29.78R
THIEF RVR FALL MOSUNNY   75  61  60 E6        29.76S
CROOKSTON      SUNNY     79  63  57 CALM      29.74F
FOSSTON        SUNNY     79  66  65 CALM      29.77S
DETROIT LAKES  SUNNY     77  63  61 CALM      29.78S
MOORHEAD       SUNNY     79  66  65 E3        29.75S
PARK RAPIDS    SUNNY     76  59  55 N8        29.77S
MAHNOMEN       FAIR      75  64  70 NE5       29.76S
$$
MNZ006-009>011-018-025>026-200100-
   North Central Minnesota

CITY           SKY/WX    TMP DP  RH WIND       PRES   REMARKS
BAUDETTE       SUNNY     71  61  70 E7        29.77S
FLAG ISLAND    SUNNY     72  61  68 SE5       29.76S
INTL FALLS     SUNNY     70  60  70 NE5       29.78S
6HR MIN TEMP:  68; 6HR MAX TEMP:  73;

WASKISH        CLOUDY    72  64  78 CALM      29.77F
BIG FORK       MOSUNNY   70  61  73 NE3       29.79S
LONGVILLE      MOSUNNY   73  64  73 NW3       29.77S
GRAND RAPIDS   MOSUNNY   70  61  73 N3        29.77S
CRANE LAKE     PTSUNNY   66  61  82 CALM      29.80S
ORR            CLOUDY    66  61  82 CALM      29.77R
COOK           CLOUDY    66  61  82 NE3       29.79S
WALKER         FAIR      69  63  80 CALM      29.77S
$$
MNZ012-019>021-037-200100-
   Northeast Minnesota

CITY           SKY/WX    TMP DP  RH WIND       PRES   REMARKS
DULUTH         PTSUNNY   68  60  75 NE5       29.77R
6HR MIN TEMP:  67; 6HR MAX TEMP:  72; 6HR PCP:  0.12;

ELY            CLOUDY    63  61  94 CALM      29.79R
HIBBING        PTSUNNY   69  60  73 CALM      29.78R
EVELETH        CLOUDY    64  59  82 N5        29.79S
DULUTH HARBOR  CLOUDY    64  61  88 N5        29.77R
TWO HARBORS    CLOUDY    64  57  77 CALM      29.75R
SILVER BAY     PTSUNNY   63  63 100 E3        29.76R
GRAND MARAIS     N/A     60  58  92 E3        29.76S
G MARAIS ARPRT CLOUDY    59  55  88 N7        29.79S FOG
$$
MNZ029>031-032-039>041-046>048-054>057-064-200100-
   West Central Minnesota

CITY           SKY/WX    TMP DP  RH WIND       PRES   REMARKS
FERGUS FALLS   MOSUNNY   79  59  50 CALM      29.75S
WHEATON        SUNNY     77  64  65 N3        29.77S
MORRIS         SUNNY     81  64  57 N3        29.75F
ALEXANDRIA     MOSUNNY   78  61  55 NW7       29.78S
ELBOW LAKE     FAIR      77  63  62 N5        29.76S
WADENA         SUNNY     75  63  64 NW5       29.76S
GLENWOOD       SUNNY     77  63  61 MISG      29.78S
APPLETON       SUNNY     82  63  51 CALM      29.75F
BENSON         SUNNY     79  64  61 N5        29.76S
ORTONVILLE     SUNNY     81  63  54 N3        29.76S
MADISON        SUNNY     82  68  61 NE3       29.76F
WILLMAR        FAIR      79  63  57 NW5       29.78S
$$
MNZ033>034-036-042>043-049>051-058-059-200100-
   Central Minnesota

CITY           SKY/WX    TMP DP  RH WIND       PRES   REMARKS
ST CLOUD       PTSUNNY   81  64  56 N5        29.74R
6HR MIN TEMP:  77; 6HR MAX TEMP:  83; 6HR PCP: TRACE;

SAUK CENTRE    FAIR      78  60  54 W8        29.77S
PAYNESVILLE    SUNNY     76  60  57 W5        29.77R HAZE
AITKIN         CLOUDY    73  64  73 NW3       29.75S
PINE RIVER     MOSUNNY   73  63  68 N8        29.80S
BRAINERD       MOSUNNY   72  63  73 N6        29.76S
STAPLES        MOSUNNY   75  61  60 N6        29.76S
LONG PRAIRIE   FAIR      75  61  60 NW6       29.77S
LITTLE FALLS   SUNNY     77  59  53 NW5       29.75S
LITCHFIELD     MOSUNNY   81  64  57 W5        29.77R
BUFFALO        SUNNY     78  61  55 NW3       29.76S
MAPLE LAKE     SUNNY     74  69  83 CALM      29.75S
$$
MNZ037-044-045-052-053-200100-
   East Central Minnesota

CITY           SKY/WX    TMP DP  RH WIND       PRES   REMARKS
PRINCETON      SUNNY     75  66  73 CALM      29.75S
MORA           MOSUNNY   70  61  73 CALM      29.76S
CAMBRIDGE      SUNNY     79  63  57 NW7       29.73S
RUSH CITY      MOSUNNY   73  64  72 CALM      29.74S
MOOSE LAKE     PTSUNNY   72  61  68 NE6G16    29.74R
HINCKLEY       CLOUDY    70  64  83 W7        29.75S
CLOQUET        CLOUDY    70  61  73 NE5       29.76S
MCGREGOR       SUNNY     73  61  64 N7        29.76R
$$
MNZ071>073-080-081-089-090-097-098-200100-
   Southwest Minnesota

CITY           SKY/WX    TMP DP  RH WIND       PRES   REMARKS
MONTEVIDEO     SUNNY     81  66  61 NE3       29.77F
GRANITE FALLS  SUNNY     79  66  65 NW3       29.78S
CANBY          SUNNY     80  68  66 E3        29.77F
MARSHALL       SUNNY     81  64  57 NE6       29.77S
REDWOOD FALLS  SUNNY     82  64  54 N5        29.76S
OLIVIA         SUNNY     79  63  57 NW6       29.77R
PIPESTONE      SUNNY     79  64  61 CALM      29.81R
WINDOM         MOSUNNY   79  64  61 NW5       29.79S
WORTHINGTON    SUNNY     82  21  10 W3        29.81S
JACKSON        MOSUNNY   79  63  57 W6        29.80S
TRACY          MOSUNNY   80  66  63 CALM      29.78S
SLAYTON        SUNNY     80  62  53 CALM      29.80F
$$
MNZ065>067-074>077-082>085-091>093-200100-
   South Central Minnesota

CITY           SKY/WX    TMP DP  RH WIND       PRES   REMARKS
MANKATO        SUNNY     79  63  57 NW9       29.76S
NEW ULM        SUNNY     79  64  61 NW6       29.76S
ST JAMES       SUNNY     82  63  51 NW5       29.78S
FAIRMONT       SUNNY     82  61  47 NW6       29.78S
GLENCOE        MOSUNNY   80  61  53 W6        29.75S
FARIBAULT      PTSUNNY   75  64  69 CALM      29.77S
OWATONNA       LGT RAIN  73  66  78 NE5       29.77S
WASECA         SUNNY     77  61  57 W5        29.78S
ALBERT LEA     SUNNY     77  64  65 CALM      29.77F
$$
MNZ078>079-086>088-094>096-200100-
   Southeast Minnesota

CITY           SKY/WX    TMP DP  RH WIND       PRES   REMARKS
ROCHESTER      PTSUNNY   74  64  71 NW5       29.78S
6HR MIN TEMP:  73; 6HR MAX TEMP:  79;

RED WING       MOSUNNY   75  63  64 CALM      29.73S
STANTON        MOSUNNY   78  63  61 W3        29.74F
DODGE CENTER   LGT RAIN  72  66  83 N6        29.78F
WINONA         SUNNY     77  63  61 CALM      29.74S
AUSTIN         MOSUNNY   77  63  61 W6        29.77S
PRESTON        SUNNY     74  66  77 NW7       29.78S
$$
ABBREVIATIONS USED IN REMARKS
   TC - TEMPERATURES IN CELSIUS
  WCI - WIND CHILL INDEX
   HX - HEAT INDEX
  VSB - VISIBILITY
$$



USA.gov is the U.S. government's official web portal to all federal, state and local government web resources and services.